Погода Казалы

Погода Казалы : погода сейчас, прогноз погоды и архив. Всё, что Вы хотите узнать о погоде Казалы!

Хотите узнать прогноз погоды Казалы? Тогда Вам сюда: Погода Казалы

Поиск расширенной информации на нашем сайте:

Другие новости

Новости СМИ2

Главная страница сайта

Новости сайта

03.07.2017

Напоминаем, что на нашем специализированном сайте Метеоцентр.Азия вы можете получить высокодетализированные автоматические прогнозы погоды по пунктам России, СНГ и мира в авиационном формате (включающие направление и скорость ветра, видимость, явления погоды, количество и форму облачности, нижнюю и верхнюю границу облачности).


Погода Казалы - сегодня

Время (UTC), дата Ветер
(°,м/с) 
Видим.   Явления Облачность Т
(°С)
Тd
(°С)
f(%) Тe
(°С)
Pmin
(гПа)
dP
(гПа)
Po
(мм)
O2
(г/м3)
Тmin Tmax R s Состояние
почвы
15 19.07.17 340 (С) 20000 м    ясно 
+32.6 +10.3 25 +34  1012.8  -0.2  754  270    +35.4       
18 19.07.17 340 (С) 20000 м    ясно 
+26.6 +11.1 38 +29  1013.9  0.9  755  275    +35.4       
21 19.07.17 тихо ()   20000 м    ясно 
+22.4 +12 52 +26  1013.9  -0.1  755  279           
00 20.07.17 тихо ()   20000 м    ясно 
+19.5 +10.9 58 +22  1013.8  -0.2  754  282           
03 20.07.17 тихо ()   20000 м    ясно 
+24.4 +12.2 46 +28  1014.5  0.8  755  277  +19.3        сухая 
06 20.07.17 050 (СВ) 20000 м    3/0 верхняя 
[Ci fib]
+31.6 +11.2 29 +34  1014.5  0.3  755  271  +19.3         
09 20.07.17 050 (СВ) 20000 м    3/0 верхняя 
[Ci fib]
+33.4 +9.4 23 +34  1013.4  -1.1  754  269           
12 20.07.17 050 (СВ) 20000 м    3/0 верхняя 
[Ci fib]
+34.2 +9.2 22 +34  1011.7  -1.7  753  268           
15 20.07.17 тихо ()   20000 м    4/0 верхняя 
[Ci fib]
+31.8 +10.5 27 +34  1011.6  -0.1  753  270    +34.2       
18 20.07.17 тихо ()   20000 м    3/0 верхняя 
[Ci fib]
+26 +13.8 47 +33  1012.2  0.5  753  274    +34.2       
21 20.07.17 тихо ()   20000 м    ясно 
+23.5 +12.9 51 +29  1011.9  -0.4  753  277           
00 21.07.17 тихо ()   20000 м    ясно 
+21.9 +13 57 +27  1012.2  0.3  753  278           
03 21.07.17 050 (СВ) 20000 м    ясно 
+26.4 +14 46 +33  1013.2  754  274           
06 21.07.17 070 (В) 20000 м    ясно 
+34.1 +12.9 28 +39  1013.1  0.1  754  268  +21.7         
09 21.07.17 340 (С) 20000 м    ясно 
+36.2 +11.9 23 +40  1012.6  -0.4  754  266           
12 21.07.17 320 (СЗ) 20000 м    3/3 1000 м 
[Cu hum]
+37.4 +11.9 22 +41  1011.3  -1.2  753  265           
15 21.07.17 тихо ()   20000 м    ясно 
+33.9 +14.5 31 +42  1010.6  -0.9  752  267    +37.6       
18 21.07.17 тихо ()   20000 м    ясно 
+28.4 +11.9 36 +32  1011.1  0.4  753  272    +37.6       
21 21.07.17 020 (С) 20000 м    ясно 
+26.7 +12.8 42 +32  1010.9  -0.2  752  274           
00 22.07.17 050 (СВ) 20000 м    3/0 средняя, верхняя 
[Ac trans|Ci fib]
+25.6 +12 43 +29  1011.1  0.1  752  275           
03 22.07.17 110 (В) 20000 м    4/0 средняя 
[Ac trans]
+28.6 +13.5 40 +35  1011.7  0.7  753  272  +24.1        сухая 
06 22.07.17 110 (В) 20000 м    3/0 верхняя 
[Ci fib]
+35.8 +12.6 25 +40  1012  0.6  753  266  +24.1         
09 22.07.17 070 (В) 20000 м    6/0 средняя 
[Ac trans]
+36.4 +12.2 23 +40  1012.7  0.6  754  266           
12 22.07.17 340 (С) 20000 м    8/0 средняя 
[Ac trans]
+35.8 +14.4 28 +43  1010.9  -1.7  753  265           
15 22.07.17 250 (З) 20000 м    8/5 600 м кучево-дожд., верхняя 
[Cb calv|Ci fib]
+34.6 +15.1 31 +43  1010.6  -0.5  752  266    +37.8       
Время (UTC), дата Ветер
(°,м/с) 
Видим.   Явления Облачность Т
(°С)
Тd
(°С)
f(%) Тe
(°С)
Pmin
(гПа)
dP
(гПа)
Po
(мм)
O2
(г/м3)
Тmin Tmax R s Состояние
почвы

Для получения пояснительной информации подведите курсор к названию столбца.

ПОГОДА Казалы - архив

Всё, что Вы хотите узнать о погоде Казалы - удобно и подробно!

Выберите нужную дату (начиная с 1 января 2015* года) и нажмите кнопку "Найти".
Будут отображены архивные сводки погоды по пункту Казалы, начиная с указанной даты.


Отображать данные в формате CSV (для использования в таблицах Excel)


Внимание! Наш архив погоды предназначен исключительно для личного некоммерческого использования в познавательных целях. Если Вам необходимы официальные справки о состоянии погоды (для производственных, юридических, коммерческих и т.п. целей), обращайтесь в органы Росгидромета.

*Примечание: данная дата относится к архиву по метеостанциям СССР (Россия, СНГ, Балтия).
Архив по метеостанциям Зарубежной Европы и Азии (кроме Китая) хранится 10 дней, по другим регионам земного шара (Китай, Африка, Америка, Австралия, Океания) - 1 день.

Казалы - район местоположения метеостанции


Название, широта, долгота, высота метеостанции:
Казалы (Казалинск) 45.8°ш. 62.1°д. 68 м над ур. моря [Казахстан]

Дополнительная информация

В oтличие oт бoльшинства пoгoдных сайтoв мы публикуем пoдрoбную метеoинфoрмацию в детальнoм прoфессиoнальнoм фoрмате.

Характеристики температуры и влажнoсти вoздуха измеряются на высoте 2 м в тени вдали oт зданий и деревьев.
Скoрoсть ветра измеряется на высoте 10 м (на урoвне рoста челoвека скoрoсть ветра ниже в 1.5-2 раза). Если метеoстанция нахoдится в гoрoде или в лесу, тo скoрoсть ветра занижена на 2-4 м/с пo сравнению с oткрытым местoм. Скoрoсть ветра над акватoриями крупных рек и oзёр, а также на вершинах хoлмoв на 2-5 м/с выше, чем в oбычных услoвиях.
Атмoсфернoе давление в разных тoчках местнoсти мoжет значительнo oтличаться oт давления на метеoстанции, в зависимoсти oт услoвий рельефа (при пoдъёме на 10 м давление пoнижается примернo на 1 мм рт.ст.).